This is the latest recevied weather packets stored in our database for station/object K3FAZ. If no packets are shown the sender has not sent any weather packets the latest 10 day(s).
| Time | Temp. | Humidity | Pressure | Rain* | Wind** | Luminosity | Snow |
|---|---|---|---|---|---|---|---|
| 1777650761 | 10.56° C | 61% | 1015.1 hPa | 0 mm | - | 184 W/m² | - |
| 1777650458 | 10.56° C | 70% | 1015.3 hPa | 0 mm | - | 235 W/m² | - |
| 1777650154 | 10° C | 71% | 1015.3 hPa | 0 mm | - | 204 W/m² | - |
| 1777649852 | 10° C | 69% | 1015.3 hPa | 0 mm | - | 130 W/m² | - |
| 1777649549 | 10° C | 71% | 1015.3 hPa | 0 mm | - | 175 W/m² | - |
| 1777649246 | 10° C | 69% | 1015.3 hPa | 0 mm | - | 169 W/m² | - |
| 1777648942 | 10° C | 70% | 1015.5 hPa | 0 mm | - | 113 W/m² | - |
| 1777648640 | 10° C | 71% | 1015.4 hPa | 0 mm | - | 122 W/m² | - |
| 1777648336 | 10° C | 71% | 1015.2 hPa | 0 mm | - | 269 W/m² | - |
| 1777648033 | 10° C | 71% | 1015.3 hPa | 0 mm | - | 248 W/m² | - |
| 1777647728 | 10° C | 71% | 1015.4 hPa | 0 mm | - | 188 W/m² | - |
| 1777647425 | 10° C | 76% | 1015.6 hPa | 0 mm | - | 239 W/m² | - |
| 1777647123 | 9.44° C | 76% | 1015.5 hPa | 0 mm | - | 266 W/m² | - |
| 1777646819 | 9.44° C | 76% | 1015.4 hPa | 0 mm | - | 173 W/m² | - |
| 1777646514 | 9.44° C | 76% | 1015.5 hPa | 0 mm | - | 167 W/m² | - |
| 1777646210 | 9.44° C | 75% | 1015.5 hPa | 0 mm | - | 293 W/m² | - |
| 1777645908 | 8.89° C | 81% | 1015.4 hPa | 0 mm | - | 415 W/m² | - |
| 1777645605 | 8.33° C | 81% | 1015.6 hPa | 0 mm | - | 518 W/m² | - |
| 1777645301 | 8.33° C | 83% | 1015.6 hPa | 0 mm | - | 335 W/m² | - |
| 1777644997 | 7.78° C | 86% | 1015.6 hPa | 0 mm | - | 310 W/m² | - |
| 1777644695 | 7.22° C | 89% | 1015.8 hPa | 0 mm | - | 225 W/m² | - |
| 1777644390 | 7.22° C | 89% | 1015.7 hPa | 0 mm | - | 173 W/m² | - |
| 1777644088 | 6.67° C | 90% | 1015.6 hPa | 0 mm | - | 167 W/m² | - |
| 1777643784 | 6.67° C | 92% | 1015.7 hPa | 0 mm | - | 220 W/m² | - |
| 1777643482 | 6.11° C | 95% | 1015.6 hPa | 0 mm | - | 185 W/m² | - |
* Rain latest hour (hover to see other rain measurements)
** Current wind speed in m/s (hover to see current wind gust speed)